SCP
0 0 0 0 0 0 0 0 0 0 0 0 0 0 0 0 0 0 0 0 0 0 0 0 0 0 0 0 0 0 0 0
0 0 0 0 0 0 0 0 0 0 0 0 0 0 0 0 0 0 0 0 0 0 0 0 0 0 0 0 0 0 0 0
0 0 0 0 0 0 0 0 0 0 0 0 0 0 0 0 0 0 0 0 0 0 0 0 0 0 0 0 0 0 0 0
0 0 0 0 0 0 0 0 0 0 0 0 0 0 0 0 0 0 0 0 0 0 -0 -0 0 0 0 0 0 0 0 0
0 0 0 0 0 0 0 0 0 0 0 0 0 0 0 0 0 0 0 0 0 0 0 0 0 0 0 0 0 0 0 0
0 0 0 0 0 0 0 0 0 0 0 0 0 0 0 0 0 0 0 0 0 0 0 -0 -0 0 0 -0 -0 -0 -0 -0
0 0 0 0 0 0 0 0 -0 -0 0 0 0 0 0 0 0 0 0 0 0 0 0 -0 0 0 -0 -0 -0 -0 -0 -0
0 0 0 0 0 0 0 0 -0 0 -0 0 0 0 0 0 0 -0 0 -0 -0 -0 0 0 0 0 -0 0 0 -0 -0 -0
0 0 0 0 0 0 0 -0 -0 0 -0 -0 -0 -0 -0 -0 -0 -0 -0 -0 0 0 0 0 0 0 -0 -0 0 0 0 0
0 0 0 0 0 0 -0 -0 -0 -0 0 0 -0 -0 -0 -0 -0 -0 -0 -0 -0 0 0 0 0 0 -0 -0 -0 -0 -0 -0
0 -0 0 0 -0 -0 0 -0 -0 0 -0 -0 -0 -0 -0 -0 -0 -0 -0 -0 -0 -0 -0 0 0 -0 -0 -0 -0 -0 -0 0
0 0 0 -0 -0 0 0 0 -0 -0 -0 -0 -0 -0 -0 -0 -0 -0 -0 -0 -0 -0 0 0 0 -0 0 0 -0 -0 0 0
0 0 -0 -0 0 0 0 -0 -0 -0 -0 -0 -0 -0 -0 -0 -0 0 0 -0 0 0 -0 -0 -0 0 -0 -0 0 0 -0 -0
0 -0 -0 0 0 -0 -0 -0 -0 -0 -0 -0 -0 -0 0 0 0 0 -0 0 -0 0 0 -0 -0 -0 0 0 0 -0 -0 -0
-0 -0 0 0 -0 -0 -0 -0 -0 -0 -0 0 0 0 0 0 0 0 0 0 -0 -0 -0 0 0 0 0 0 0 0 0 0
-0 0 0 -0 -0 0 0 0 0 0 0 0 0 0 0 0 0 0 0 0 0 0 0 0 0 0 0 0 0 0 0 0
0 0 -0 -0 -0 0 0 0 0 0 0 0 0 0 0 0 0 0 0 0 0 0 0 0 0 0 0 0 0 0 0 0
0 -0 0 0 0 0 0 0 0 0 0 0 0 0 0 0 0 0 0 0 0 0 0 0 0 0 0 0 0 0 0 0
0 0 0 0 0 0 0 0 0 0 0 0 0 0 0 0 0 0 0 0 0 0 0 0 0 0 0 0 0 0 0 0
0 0 0 0 0 0 0 0 0 0 0 0 0 0 0 0 0 0 0 0 0 0 0 0 0 0 0 0 0 0 0 0
Wind_Speed_500mb
30 41 52 61 68 79 72 68 67 60 56 48 51 51 59 55 48 43 37 29 22 20 18 18 20 19 17 14 14 13 12 12
38 46 52 63 75 74 70 67 57 54 47 41 46 52 49 40 35 32 25 16 17 12 11 11 14 13 14 14 15 14 14 14
42 47 58 69 80 73 68 64 56 48 38 40 40 38 42 33 29 20 17 14 12 13 12 12 13 14 13 15 15 12 11 15
45 47 61 72 77 71 66 63 49 39 40 40 27 37 32 25 23 18 13 15 17 16 19 23 23 21 16 17 17 16 14 14
46 53 64 75 76 63 61 44 40 36 33 28 37 28 20 22 21 18 13 11 18 22 25 25 23 22 19 22 24 22 14 19
52 59 71 74 68 57 41 36 36 30 29 31 21 19 22 27 29 26 32 31 29 26 24 22 22 22 25 24 30 24 24 22
54 58 63 73 57 40 30 31 33 33 26 19 22 22 26 27 27 24 25 28 28 27 27 31 29 26 26 29 33 24 19 20
57 53 67 52 42 24 28 30 31 24 22 30 32 28 31 27 24 25 24 23 27 29 28 29 27 25 27 26 26 25 29 28
46 54 49 44 28 23 21 24 22 21 31 32 27 23 22 26 29 28 22 33 30 28 23 22 22 22 22 21 18 17 16 18
42 39 44 27 17 15 16 20 29 34 27 22 23 32 31 33 35 34 28 26 24 26 31 28 27 26 27 26 22 23 19 17
32 37 27 22 12 13 24 38 29 22 24 24 27 28 31 33 31 29 28 27 24 31 31 30 29 26 24 18 22 21 16 17
30 22 20 21 27 37 42 30 27 28 26 29 32 34 34 31 31 30 29 28 31 36 29 38 35 29 26 22 20 19 17 15
25 22 21 31 46 41 37 33 31 30 33 36 33 30 29 30 29 28 25 21 23 27 26 40 40 32 33 26 18 17 16 15
21 21 31 45 38 39 34 29 26 25 25 27 26 29 26 28 27 35 28 25 18 23 25 36 35 29 25 19 24 26 26 17
20 28 43 37 37 31 29 27 23 24 27 24 22 20 18 22 16 26 26 27 31 29 27 28 26 22 24 24 25 23 22 21
25 40 38 38 34 34 33 26 20 22 22 14 17 22 24 24 17 17 18 25 29 23 25 23 28 24 23 27 29 26 32 33
37 44 44 39 39 35 28 22 16 12 4 11 17 25 26 24 19 20 20 17 21 28 30 26 34 36 33 37 42 56 59 51
51 50 42 35 26 21 17 17 14 18 14 17 18 23 26 27 26 23 19 21 29 33 31 41 31 45 49 36 65 63 56 57
49 41 31 24 20 23 27 30 28 26 28 26 22 20 22 25 30 31 27 28 32 37 38 38 44 45 50 57 52 48 48 53
38 29 23 22 23 24 24 23 28 29 26 25 24 27 30 30 29 30 32 33 34 40 39 45 47 49 52 57 66 65 59 61
Wind_Direction_500mb
297 318 328 331 330 331 329 324 322 322 317 317 320 321 324 321 317 317 305 317 319 323 314 307 308 314 312 315 326 333 344 349
299 318 322 328 332 333 330 329 329 330 326 323 327 326 333 336 331 331 328 331 325 326 319 312 322 328 332 335 337 343 351 2
302 312 323 330 334 332 330 329 328 332 331 332 329 324 329 335 343 342 344 341 6 4 360 354 2 15 31 30 22 17 13 24
307 313 324 330 332 331 329 330 333 326 327 331 342 335 336 347 2 6 20 48 65 46 43 55 58 50 59 36 30 45 54 66
308 314 322 327 330 329 328 334 339 340 335 332 342 344 8 25 27 17 2 36 51 74 57 45 41 39 37 30 24 29 60 85
304 312 318 325 326 327 333 334 341 341 335 342 359 34 62 63 53 51 65 51 47 46 46 52 50 54 55 46 28 59 79 79
304 311 318 323 325 328 337 354 350 352 3 28 58 79 71 59 54 54 58 57 51 52 58 63 53 62 62 48 43 59 74 88
311 314 322 324 328 335 334 357 355 17 60 83 80 55 67 64 57 62 66 65 70 69 70 66 65 59 59 59 52 51 80 80
310 313 322 326 334 338 346 1 28 72 95 85 70 60 51 61 52 61 79 77 65 55 69 67 60 57 58 53 45 63 74 83
312 311 325 339 347 7 31 57 89 93 71 59 51 59 71 61 62 54 52 54 55 61 52 58 48 49 47 63 73 57 54 64
329 317 342 357 33 59 86 103 86 59 71 71 69 63 61 72 58 60 63 62 69 77 49 48 40 42 45 45 40 40 53 52
355 10 26 59 81 100 95 82 75 79 77 77 75 77 73 60 64 62 61 63 62 69 52 45 46 56 52 56 45 37 59 63
22 41 76 96 108 94 88 88 87 87 81 77 83 72 66 65 60 53 50 60 60 62 49 39 43 54 44 42 57 67 50 40
49 78 104 117 104 99 98 93 92 87 90 92 79 69 69 55 58 47 53 53 58 65 61 40 38 49 46 51 47 36 38 40
80 102 123 114 110 103 89 80 78 95 92 84 67 67 60 39 81 76 80 67 65 73 59 40 33 69 54 50 51 51 54 64
103 126 120 112 105 92 86 90 88 80 76 70 53 34 18 34 52 87 93 70 40 52 44 45 62 66 56 71 54 70 73 80
121 126 118 110 98 94 87 75 69 67 75 37 19 20 50 63 70 70 69 58 84 60 44 78 71 79 84 91 73 76 77 72
127 122 114 106 90 74 56 28 15 23 25 34 65 72 64 61 67 82 76 51 55 66 65 71 75 80 79 87 74 67 76 77
123 116 105 88 58 45 50 53 43 56 74 84 81 70 69 69 69 71 71 86 79 68 74 67 84 85 85 78 69 57 66 76
121 106 84 54 56 66 69 83 81 83 86 76 67 69 70 70 71 73 76 88 86 82 74 75 82 87 78 72 74 71 77 68
Wind_Speed_850mb
30 41 52 61 68 79 72 68 67 60 56 48 51 51 59 55 48 43 37 29 22 20 18 18 20 19 17 14 14 13 12 12
38 46 52 63 75 74 70 67 57 54 47 41 46 52 49 40 35 32 25 16 17 12 11 11 14 13 14 14 15 14 14 14
42 47 58 69 80 73 68 64 56 48 38 40 40 38 42 33 29 20 17 14 12 13 12 12 13 14 13 15 15 12 11 15
45 47 61 72 77 71 66 63 49 39 40 40 27 37 32 25 23 18 13 15 17 16 19 23 23 21 16 17 17 16 14 14
46 53 64 75 76 63 61 44 40 36 33 28 37 28 20 22 21 18 13 11 18 22 25 25 23 22 19 22 24 22 14 19
52 59 71 74 68 57 41 36 36 30 29 31 21 19 22 27 29 26 32 31 29 26 24 22 22 22 25 24 30 24 24 22
54 58 63 73 57 40 30 31 33 33 26 19 22 22 26 27 27 24 25 28 28 27 27 31 29 26 26 29 33 24 19 20
57 53 67 52 42 24 28 30 31 24 22 30 32 28 31 27 24 25 24 23 27 29 28 29 27 25 27 26 26 25 29 28
46 54 49 44 28 23 21 24 22 21 31 32 27 23 22 26 29 28 22 33 30 28 23 22 22 22 22 21 18 17 16 18
42 39 44 27 17 15 16 20 29 34 27 22 23 32 31 33 35 34 28 26 24 26 31 28 27 26 27 26 22 23 19 17
32 37 27 22 12 13 24 38 29 22 24 24 27 28 31 33 31 29 28 27 24 31 31 30 29 26 24 18 22 21 16 17
30 22 20 21 27 37 42 30 27 28 26 29 32 34 34 31 31 30 29 28 31 36 29 38 35 29 26 22 20 19 17 15
25 22 21 31 46 41 37 33 31 30 33 36 33 30 29 30 29 28 25 21 23 27 26 40 40 32 33 26 18 17 16 15
21 21 31 45 38 39 34 29 26 25 25 27 26 29 26 28 27 35 28 25 18 23 25 36 35 29 25 19 24 26 26 17
20 28 43 37 37 31 29 27 23 24 27 24 22 20 18 22 16 26 26 27 31 29 27 28 26 22 24 24 25 23 22 21
25 40 38 38 34 34 33 26 20 22 22 14 17 22 24 24 17 17 18 25 29 23 25 23 28 24 23 27 29 26 32 33
37 44 44 39 39 35 28 22 16 12 4 11 17 25 26 24 19 20 20 17 21 28 30 26 34 36 33 37 42 56 59 51
51 50 42 35 26 21 17 17 14 18 14 17 18 23 26 27 26 23 19 21 29 33 31 41 31 45 49 36 65 63 56 57
49 41 31 24 20 23 27 30 28 26 28 26 22 20 22 25 30 31 27 28 32 37 38 38 44 45 50 57 52 48 48 53
38 29 23 22 23 24 24 23 28 29 26 25 24 27 30 30 29 30 32 33 34 40 39 45 47 49 52 57 66 65 59 61
Wind_Direction_850mb
297 318 328 331 330 331 329 324 322 322 317 317 320 321 324 321 317 317 305 317 319 323 314 307 308 314 312 315 326 333 344 349
299 318 322 328 332 333 330 329 329 330 326 323 327 326 333 336 331 331 328 331 325 326 319 312 322 328 332 335 337 343 351 2
302 312 323 330 334 332 330 329 328 332 331 332 329 324 329 335 343 342 344 341 6 4 360 354 2 15 31 30 22 17 13 24
307 313 324 330 332 331 329 330 333 326 327 331 342 335 336 347 2 6 20 48 65 46 43 55 58 50 59 36 30 45 54 66
308 314 322 327 330 329 328 334 339 340 335 332 342 344 8 25 27 17 2 36 51 74 57 45 41 39 37 30 24 29 60 85
304 312 318 325 326 327 333 334 341 341 335 342 359 34 62 63 53 51 65 51 47 46 46 52 50 54 55 46 28 59 79 79
304 311 318 323 325 328 337 354 350 352 3 28 58 79 71 59 54 54 58 57 51 52 58 63 53 62 62 48 43 59 74 88
311 314 322 324 328 335 334 357 355 17 60 83 80 55 67 64 57 62 66 65 70 69 70 66 65 59 59 59 52 51 80 80
310 313 322 326 334 338 346 1 28 72 95 85 70 60 51 61 52 61 79 77 65 55 69 67 60 57 58 53 45 63 74 83
312 311 325 339 347 7 31 57 89 93 71 59 51 59 71 61 62 54 52 54 55 61 52 58 48 49 47 63 73 57 54 64
329 317 342 357 33 59 86 103 86 59 71 71 69 63 61 72 58 60 63 62 69 77 49 48 40 42 45 45 40 40 53 52
355 10 26 59 81 100 95 82 75 79 77 77 75 77 73 60 64 62 61 63 62 69 52 45 46 56 52 56 45 37 59 63
22 41 76 96 108 94 88 88 87 87 81 77 83 72 66 65 60 53 50 60 60 62 49 39 43 54 44 42 57 67 50 40
49 78 104 117 104 99 98 93 92 87 90 92 79 69 69 55 58 47 53 53 58 65 61 40 38 49 46 51 47 36 38 40
80 102 123 114 110 103 89 80 78 95 92 84 67 67 60 39 81 76 80 67 65 73 59 40 33 69 54 50 51 51 54 64
103 126 120 112 105 92 86 90 88 80 76 70 53 34 18 34 52 87 93 70 40 52 44 45 62 66 56 71 54 70 73 80
121 126 118 110 98 94 87 75 69 67 75 37 19 20 50 63 70 70 69 58 84 60 44 78 71 79 84 91 73 76 77 72
127 122 114 106 90 74 56 28 15 23 25 34 65 72 64 61 67 82 76 51 55 66 65 71 75 80 79 87 74 67 76 77
123 116 105 88 58 45 50 53 43 56 74 84 81 70 69 69 69 71 71 86 79 68 74 67 84 85 85 78 69 57 66 76
121 106 84 54 56 66 69 83 81 83 86 76 67 69 70 70 71 73 76 88 86 82 74 75 82 87 78 72 74 71 77 68